Location: Berlise
(49.6641°N, 4.1077°E)
Time: 02:15:16
(UTC+00:00)

Cosmos 2026 Rocket - Pass Details

Date: 27 January 2021
Orbit: 940 x 1000 km, 82.9° (Epoch: 28 February)

Event Time Altitude Azimuth Distance (km) Brightness Sun altitude
Rises 05:14:41 0° 350° (N) 3,718 6.9 -20.6°
Reaches altitude 10° 05:17:13 10° 350° (N) 2,771 6.2 -20.2°
Maximum altitude 05:23:36 87° 264° (W) 1,008 4.0 -19.1°
Drops below altitude 10° 05:29:59 10° 175° (S) 2,764 6.5 -18.1°
Sets 05:32:30 0° 175° (S) 3,708 7.2 -17.7°
